Weather History for Omaha Millard, NE

Change the Weather History Date:

Wednesday, May 29, 2013

  Actual Average (KOMA) Record (KOMA)
Temperature  
Mean Temperature 69 °F 67 °F  
Max Temperature 75 °F 78 °F 102 °F (1934)
Min Temperature 63 °F 55 °F 33 °F (1947)
Degree Days  
Heating Degree Days 0 2  
Month to date heating degree days 143  
Since 1 July heating degree days 6145  
Cooling Degree Days 4 4  
Month to date cooling degree days 57  
Year to date cooling degree days 73  
Growing Degree Days 19 (Base 50)    
Moisture  
Dew Point 65 °F    
Average Humidity 85    
Maximum Humidity 94    
Minimum Humidity 74    
Precipitation  
Precipitation 0.59 in 0.16 in 1.35 in (1880)
Month to date precipitation 4.42  
Year to date precipitation 10.94  
Snow  
Snow 0.00 in 0.00 in - ()
Month to date snowfall 0.1  
Since 1 July snowfall 26.5  
Snow Depth -    
Sea Level Pressure  
Sea Level Pressure 29.66 in    
Wind  
Wind Speed 9 mph (SE)    
Max Wind Speed 21 mph    
Max Gust Speed 36 mph    
Visibility 10 miles    
Events Rain , Thunderstorm    
T = Trace of Precipitation, MM = Missing Value Source: NWS Daily Summary

Daily Weather History Graph

Daily Weather History Graph

Search for Another Location

Airport:

Trip Planner

Search our weather history database for the weather conditions in past years. The results will help you decide how hot, cold, wet, or windy it might be!

Date:

Astronomy

May. 29, 2013 Rise Set
Actual Time 5:55 AM CDT 8:48 PM CDT
Civil Twilight 5:22 AM CDT 9:21 PM CDT
Nautical Twilight 4:41 AM CDT 10:03 PM CDT
Astronomical Twilight 3:53 AM CDT 10:51 PM CDT
Moon 12:10 AM CDT (5/29) 10:57 AM CDT (5/29)
Length of Visible Light 15h 59m
Length of Day
14h 53m
Waning Gibbous, 73% of the Moon is Illuminated
May 29
Waning Gibbous
May 31
Last Quarter
Jun 8
New
Jun 16
First Quarter
Jun 23
Full

Hourly Weather History & Observations

Time (CDT) Temp. Dew Point Humidity Pressure Visibility Wind Dir Wind Speed Gust Speed Precip Events Conditions
12:15 AM 68.9 °F 61.9 °F 78% 29.73 in 10.0 mi SSE 8.1 mph - N/A   Scattered Clouds
12:35 AM 67.6 °F 61.7 °F 81% 29.71 in 10.0 mi SE 5.8 mph - N/A   Clear
12:55 AM 67.1 °F 61.9 °F 83% 29.70 in 10.0 mi ESE 3.5 mph - N/A   Clear
1:15 AM 67.5 °F 61.9 °F 82% 29.71 in 10.0 mi ESE 5.8 mph - N/A   Clear
1:35 AM 67.6 °F 61.2 °F 80% 29.71 in 10.0 mi SE 6.9 mph - N/A   Clear
1:55 AM 66.6 °F 61.3 °F 83% 29.71 in 10.0 mi SE 6.9 mph - N/A   Clear
2:15 AM 66.2 °F 61.9 °F 86% 29.71 in 10.0 mi SE 8.1 mph - N/A   Scattered Clouds
2:35 AM 66.7 °F 62.1 °F 85% 29.71 in 10.0 mi ESE 6.9 mph - N/A   Mostly Cloudy
2:55 AM 67.3 °F 61.7 °F 82% 29.70 in 10.0 mi SE 9.2 mph - N/A   Mostly Cloudy
3:15 AM 67.5 °F 62.2 °F 83% 29.71 in 10.0 mi SE 8.1 mph - N/A   Mostly Cloudy
3:35 AM 66.9 °F 62.4 °F 85% 29.71 in 10.0 mi SE 6.9 mph - N/A   Scattered Clouds
3:55 AM 66.9 °F 63.0 °F 87% 29.71 in 10.0 mi SE 6.9 mph - N/A   Clear
4:15 AM 68.0 °F 63.7 °F 86% 29.72 in 10.0 mi SE 8.1 mph - N/A   Scattered Clouds
4:35 AM 68.4 °F 64.0 °F 86% 29.71 in 10.0 mi SE 4.6 mph - N/A   Mostly Cloudy
4:55 AM 68.9 °F 65.1 °F 88% 29.71 in 10.0 mi SE 5.8 mph - N/A   Overcast
5:15 AM 70.3 °F 65.5 °F 85% 29.71 in 10.0 mi ESE 6.9 mph - N/A   Overcast
5:35 AM 69.8 °F 65.5 °F 86% 29.70 in 10.0 mi SE 5.8 mph - N/A   Mostly Cloudy
5:55 AM 69.1 °F 65.5 °F 88% 29.69 in 10.0 mi ESE 6.9 mph - N/A   Scattered Clouds
6:15 AM 69.8 °F 65.7 °F 87% 29.69 in 10.0 mi SE 12.7 mph 18.4 mph N/A   Clear
6:35 AM 70.2 °F 65.5 °F 85% 29.70 in 10.0 mi SE 12.7 mph 19.6 mph N/A   Mostly Cloudy
6:55 AM 70.5 °F 65.3 °F 83% 29.70 in 10.0 mi SE 15.0 mph 21.9 mph N/A   Overcast
7:15 AM 70.5 °F 65.3 °F 83% 29.70 in 10.0 mi SE 12.7 mph - N/A   Overcast
7:35 AM 70.7 °F 65.3 °F 83% 29.70 in 10.0 mi SE 13.8 mph 17.3 mph N/A   Overcast
7:55 AM 70.7 °F 65.3 °F 83% 29.70 in 10.0 mi SE 15.0 mph 19.6 mph N/A Rain , Thunderstorm Light Thunderstorms and Rain
8:15 AM 70.5 °F 65.5 °F 84% 29.70 in 5.0 mi SE 16.1 mph 19.6 mph 0.04 in Rain , Thunderstorm Heavy Thunderstorms and Rain
8:35 AM 70.2 °F 66.2 °F 87% 29.69 in 10.0 mi SE 10.4 mph 18.4 mph 0.04 in Thunderstorm Thunderstorm
8:55 AM 71.1 °F 66.9 °F 87% 29.68 in 10.0 mi SE 16.1 mph 19.6 mph 0.04 in Thunderstorm Mostly Cloudy
9:15 AM 71.6 °F 66.4 °F 84% 29.69 in 10.0 mi SE 13.8 mph 21.9 mph N/A   Mostly Cloudy
9:35 AM 70.9 °F 66.2 °F 85% 29.69 in 10.0 mi SE 12.7 mph 18.4 mph N/A Rain , Thunderstorm Light Thunderstorms and Rain
9:55 AM 70.0 °F 66.6 °F 89% 29.71 in 10.0 mi South 6.9 mph - N/A Rain , Thunderstorm Light Thunderstorms and Rain
10:15 AM 68.7 °F 63.3 °F 83% 29.71 in 10.0 mi SW 4.6 mph 18.4 mph N/A Rain , Thunderstorm Light Thunderstorms and Rain
10:35 AM 66.4 °F 62.2 °F 86% 29.72 in 10.0 mi South 8.1 mph - 0.01 in Rain , Thunderstorm Light Thunderstorms and Rain
10:55 AM 65.3 °F 61.9 °F 89% 29.70 in 10.0 mi South 10.4 mph 19.6 mph 0.02 in Rain , Thunderstorm Light Thunderstorms and Rain
11:15 AM 67.1 °F 61.5 °F 82% 29.66 in 10.0 mi South 6.9 mph - N/A Rain , Thunderstorm Light Thunderstorms and Rain
11:35 AM 70.0 °F 63.5 °F 80% 29.65 in 10.0 mi ESE 6.9 mph - N/A   Scattered Clouds
11:55 AM 71.1 °F 62.4 °F 74% 29.69 in 10.0 mi SSE 12.7 mph 17.3 mph N/A Thunderstorm Scattered Clouds
12:15 PM 70.3 °F 62.8 °F 77% 29.69 in 10.0 mi SE 12.7 mph - N/A Rain , Thunderstorm Light Thunderstorms and Rain
12:35 PM 70.2 °F 63.5 °F 79% 29.69 in 10.0 mi SE 8.1 mph - N/A Thunderstorm Scattered Clouds
12:55 PM 70.0 °F 65.3 °F 85% 29.69 in 10.0 mi SSE 6.9 mph - N/A Thunderstorm Scattered Clouds
1:15 PM 70.2 °F 66.2 °F 87% 29.69 in 10.0 mi SE 11.5 mph - N/A   Scattered Clouds
1:35 PM 70.2 °F 66.2 °F 87% 29.68 in 10.0 mi SE 10.4 mph - N/A Rain Light Rain
1:55 PM 72.0 °F 67.8 °F 87% 29.66 in 10.0 mi SE 10.4 mph 19.6 mph N/A Thunderstorm Thunderstorm
2:15 PM 70.7 °F 67.1 °F 88% 29.68 in 10.0 mi ESE 9.2 mph - N/A Thunderstorm Thunderstorm
2:35 PM 71.1 °F 66.7 °F 86% 29.67 in 10.0 mi ESE 10.4 mph 17.3 mph N/A Thunderstorm Mostly Cloudy
2:55 PM 70.7 °F 66.9 °F 88% 29.67 in 10.0 mi SE 11.5 mph 19.6 mph N/A Rain Light Rain
3:15 PM 71.1 °F 67.1 °F 87% 29.66 in 10.0 mi SSE 9.2 mph - N/A Rain Light Rain
3:35 PM 74.3 °F 69.1 °F 84% 29.64 in 10.0 mi SE 11.5 mph 17.3 mph N/A Thunderstorm Thunderstorm
3:55 PM 75.4 °F 68.7 °F 80% 29.64 in 10.0 mi SE 20.7 mph 25.3 mph N/A Thunderstorm Mostly Cloudy
4:15 PM 74.3 °F 68.9 °F 83% 29.64 in 10.0 mi ESE 9.2 mph 18.4 mph N/A   Overcast
4:35 PM 73.9 °F 69.3 °F 85% 29.60 in 10.0 mi ESE 9.2 mph - N/A   Overcast
4:55 PM 74.5 °F 69.3 °F 84% 29.58 in 10.0 mi ESE 12.7 mph 17.3 mph N/A   Overcast
5:15 PM 74.8 °F 69.6 °F 84% 29.58 in 10.0 mi ESE 15.0 mph 21.9 mph N/A   Overcast
5:35 PM 75.2 °F 69.8 °F 83% 29.56 in 10.0 mi East 11.5 mph 20.7 mph N/A   Overcast
5:55 PM 75.4 °F 69.8 °F 83% 29.56 in 10.0 mi SE 17.3 mph 23.0 mph N/A   Mostly Cloudy
6:15 PM 75.4 °F 69.1 °F 81% 29.56 in 10.0 mi ESE 15.0 mph 27.6 mph N/A   Mostly Cloudy
6:35 PM 75.4 °F 68.9 °F 80% 29.55 in 10.0 mi ESE 12.7 mph - N/A   Mostly Cloudy
6:55 PM 75.2 °F 68.9 °F 81% 29.56 in 10.0 mi ESE 16.1 mph 20.7 mph N/A Thunderstorm Mostly Cloudy
7:15 PM 75.4 °F 68.5 °F 79% 29.56 in 10.0 mi ESE 11.5 mph 19.6 mph N/A   Mostly Cloudy
7:35 PM 75.2 °F 68.0 °F 78% 29.57 in 10.0 mi SE 18.4 mph 24.2 mph N/A   Mostly Cloudy
7:55 PM 65.7 °F 60.8 °F 84% 29.59 in 2.5 mi SE 16.1 mph 35.7 mph 0.22 in Rain , Thunderstorm Heavy Thunderstorms and Rain
8:15 PM 65.7 °F 62.1 °F 88% 29.59 in 10.0 mi SE 9.2 mph - 0.02 in Rain , Thunderstorm Light Thunderstorms and Rain
8:35 PM 67.6 °F 63.5 °F 87% 29.61 in 10.0 mi SSE 4.6 mph - 0.03 in Rain , Thunderstorm Light Thunderstorms and Rain
8:55 PM 66.4 °F 62.8 °F 88% 29.61 in 10.0 mi South 3.5 mph - 0.07 in Rain , Thunderstorm Rain
9:15 PM 66.0 °F 62.8 °F 89% 29.59 in 10.0 mi ESE 5.8 mph - 0.02 in Rain Light Rain
9:35 PM 66.7 °F 63.9 °F 90% 29.62 in 10.0 mi SSE 11.5 mph - 0.03 in Rain Light Rain
9:55 PM 66.0 °F 63.1 °F 90% 29.62 in 10.0 mi SSE 13.8 mph 23.0 mph 0.05 in Rain , Thunderstorm Rain
10:15 PM 65.3 °F 63.0 °F 92% 29.62 in 7.0 mi SSE 12.7 mph 16.1 mph 0.07 in Rain , Thunderstorm Rain
10:35 PM 64.6 °F 62.6 °F 93% 29.59 in 7.0 mi SE 10.4 mph - 0.14 in Rain Light Rain
10:55 PM 64.2 °F 62.4 °F 94% 29.57 in 10.0 mi ESE 13.8 mph 18.4 mph 0.16 in Rain Rain
11:15 PM 63.9 °F 62.2 °F 94% 29.57 in 10.0 mi SE 12.7 mph 18.4 mph 0.02 in Rain Light Rain
11:35 PM 63.9 °F 62.1 °F 94% 29.58 in 10.0 mi SE 10.4 mph 16.1 mph 0.02 in   Clear
11:55 PM 63.9 °F 62.2 °F 94% 29.57 in 7.0 mi ESE 8.1 mph - 0.03 in Rain , Thunderstorm Rain